SCP
0 0 0 0 0 0 0 0 0 0 0 0 0 0 0 0 0 0 0 0 0 0 0 0 0 0 0 0 0 0 0 0 0 0 0 0 0 0 0 0 0 0 0 0
0 0 0 0 0 0 0 0 0 0 0 0 0 0 0 0 0 0 0 0 0 0 0 0 0 0 0 0 0 0 0 0 0 0 0 0 0 0 0 0 0 0 0 0
0 0 0 0 0 0 0 0 0 0 0 0 0 0 0 0 0 0 0 0 0 0 0 0 0 0 0 0 0 0 0 0 0 0 0 0 0 0 0 0 0 0 0 0
0 0 0 0 0 0 0 0 0 0 0 0 0 0 0 0 0 0 0 0 0 0 0 0 0 0 0 0 0 0 0 0 0 0 0 0 0 0 0 0 0 0 0 0
0 0 0 0 0 0 0 0 0 0 0 0 0 0 0 0 0 0 0 0 0 0 0 0 0 0 0 0 0 0 0 0 0 0 0 0 0 0 0 0 0 0 0 0
0 0 0 0 0 0 0 0 0 0 0 0 0 0 0 0 0 0 0 0 0 0 0 0 0 0 0 0 0 0 0 0 0 0 0 0 0 0 0 0 0 0 0 0
0 0 0 0 0 0 0 0 0 0 0 0 0 0 0 0 0 0 0 0 0 0 0 0 0 0 0 0 0 0 0 0 0 0 0 0 0 0 0 0 0 0 0 0
0 0 0 0 0 0 0 0 0 0 0 0 0 0 0 0 0 0 0 0 0 0 0 0 0 0 0 0 0 0 0 0 0 0 0 0 0 0 0 0 0 0 0 0
0 0 0 0 0 0 0 0 0 0 0 0 0 0 0 0 0 0 0 0 0 0 0 0 0 0 0 0 0 0 0 0 0 0 0 0 0 0 0 0 0 0 0 0
0 0 0 0 0 0 0 0 0 0 0 0 0 0 0 0 0 0 0 0 0 0 0 0 0 0 0 0 0 0 0 0 0 0 0 0 0 0 0 0 0 0 0 0
0 0 0 0 0 0 0 0 0 0 0 0 0 0 0 0 0 0 0 0 0 0 0 0 0 0 0 0 0 0 0 0 0 0 0 0 0 0 0 0 0 0 0 0
0 0 0 0 0 0 0 0 0 0 0 0 0 0 0 0 0 0 0 0 0 0 0 0 0 0 0 0 0 0 0 0 0 0 0 0 0 0 0 0 0 0 0 0
0 0 0 0 0 0 0 0 0 0 0 0 0 0 0 0 0 0 0 0 0 0 0 0 0 0 0 0 0 0 0 0 0 0 0 0 0 0 0 0 0 0 0 0
0 0 0 0 0 0 0 0 0 0 0 0 0 0 0 0 0 0 0 0 0 0 0 0 0 0 0 0 0 0 0 0 0 0 0 0 0 0 0 0 0 0 0 0
0 0 0 0 0 0 0 0 0 0 0 0 0 0 0 0 0 0 0 0 0 0 0 0 0 0 0 0 0 0 0 0 0 0 0 0 0 0 0 0 0 0 0 0
0 0 0 0 0 0 0 0 0 0 0 0 0 0 0 0 0 0 0 0 0 0 0 0 0 0 0 0 0 0 0 0 0 0 0 0 0 0 0 0 0 0 0 0
0 0 0 0 0 0 0 0 0 0 0 0 0 0 0 0 0 0 0 0 0 0 0 0 0 0 0 0 0 0 0 0 0 0 0 0 0 0 0 0 0 0 0 0
0 0 0 0 0 0 0 0 0 0 0 0 0 0 0 0 0 0 0 0 0 0 0 0 0 0 0 0 0 0 0 0 0 0 0 0 0 0 0 0 0 0 0 0
0 0 0 0 0 0 0 0 0 0 0 0 0 0 0 0 -0 0 0 0 0 0 0 0 0 0 0 0 0 0 0 0 0 0 0 0 0 0 0 0 0 0 0 0
0 0 0 0 0 0 0 0 0 0 0 0 0 0 0 -0 -0 -0 0 0 0 0 0 0 0 0 0 0 0 0 0 0 0 0 0 0 0 0 0 0 0 0 0 0
0 0 0 0 0 0 0 0 0 0 0 0 0 0 0 -0 -0 -0 0 0 0 0 0 0 0 0 0 0 0 0 0 0 0 0 0 0 0 0 0 0 0 0 0 0
0 0 0 0 0 0 0 0 0 0 0 0 0 0 0 0 0 0 0 0 0 0 0 0 0 0 0 0 0 0 0 0 0 0 0 0 0 0 0 0 0 0 0 0
0 0 0 0 0 0 0 0 0 0 0 0 0 0 0 0 0 0 0 0 0 0 0 0 0 0 0 0 0 0 0 0 0 0 0 0 0 0 0 0 0 0 0 0
0 0 0 0 0 0 0 0 0 0 0 0 0 0 0 0 0 0 0 0 0 0 0 0 0 0 0 0 0 0 0 0 0 0 0 0 0 0 0 0 0 0 0 0
0 0 0 0 0 0 0 0 0 0 0 0 0 0 0 0 0 0 0 0 0 0 0 0 0 0 0 0 0 0 0 0 0 0 0 0 0 0 0 0 0 0 0 0
0 0 0 0 0 0 0 0 0 0 0 0 0 0 0 0 0 0 0 0 0 0 0 0 0 0 0 0 0 0 0 0 0 0 0 0 0 0 0 0 0 0 0 0
Wind_Speed
5 6 2 2 1 1 1 1 3 4 1 2 1 2 5 5 6 7 6 6 6 6 7 7 8 8 8 8 7 5 5 5 3 2 2 2 2 2 2 2 2 2 2 1
5 4 3 1 1 0 1 2 4 4 1 1 0 2 2 4 4 4 5 5 6 7 9 9 9 8 8 7 7 7 6 5 4 2 2 2 2 1 1 2 3 3 2 2
4 2 3 2 3 2 1 3 4 4 3 1 1 3 1 2 3 5 5 5 6 6 7 8 9 8 7 7 7 6 7 6 5 4 2 2 2 2 2 3 3 3 3 2
2 3 3 3 2 2 3 2 3 3 1 3 1 4 3 2 4 6 7 6 7 7 7 7 8 8 8 7 6 6 6 6 5 4 3 2 2 2 3 2 3 3 2 2
2 3 3 3 2 1 3 3 2 2 2 2 1 3 5 2 3 5 6 7 7 7 7 8 8 8 7 7 6 6 7 7 6 5 3 2 2 2 2 2 3 3 3 2
2 1 1 2 2 1 2 2 1 2 2 2 3 3 5 1 3 4 6 7 7 7 7 8 8 8 8 7 7 7 7 7 7 6 4 3 3 3 3 3 3 3 3 2
6 4 4 3 4 4 5 4 4 5 2 4 1 2 5 2 1 2 5 6 7 6 6 7 8 9 9 9 8 7 8 8 7 7 5 5 4 3 3 3 3 3 3 3
4 5 4 4 2 2 2 2 2 3 4 4 2 4 4 0 2 2 3 5 6 6 6 6 6 7 8 9 8 8 8 8 8 7 7 6 5 3 3 3 3 3 3 3
1 4 3 3 2 1 1 1 1 2 2 3 5 4 4 2 4 5 5 6 6 6 6 6 6 6 7 8 8 7 7 8 8 8 7 6 5 4 4 4 4 3 3 3
1 4 4 5 2 3 2 2 3 2 1 5 5 4 3 2 4 6 6 7 7 7 7 6 6 7 7 7 7 7 7 7 8 8 7 6 6 5 5 4 4 4 4 3
1 1 5 4 2 2 3 2 1 1 2 2 5 5 1 1 2 4 6 6 7 7 7 6 6 6 6 7 7 7 8 8 8 8 8 7 6 5 5 4 4 4 4 4
1 2 3 4 2 0 1 1 2 2 3 2 3 7 0 1 2 3 5 7 7 7 5 5 5 6 6 7 8 8 8 8 8 8 8 7 7 6 5 5 4 4 4 3
2 3 3 5 2 3 2 1 1 2 1 3 4 8 1 3 5 5 6 7 7 7 6 6 5 5 6 7 7 8 8 8 8 7 7 7 7 7 6 6 5 4 3 3
3 2 4 6 5 2 3 3 1 2 3 5 7 9 7 6 7 8 7 7 7 6 6 6 7 6 6 7 7 8 8 8 8 8 7 7 7 7 6 6 5 5 4 3
2 2 4 6 5 4 5 5 4 6 6 7 8 7 8 6 6 7 6 7 7 7 7 7 8 8 7 7 7 7 8 8 8 8 7 7 7 7 6 6 5 4 4 3
2 1 2 4 3 3 5 6 5 6 5 7 7 9 5 5 4 5 6 7 7 8 8 8 8 9 9 8 8 8 8 8 8 7 7 7 7 7 6 6 5 4 4 4
1 2 0 4 4 4 6 5 4 3 3 4 6 6 4 5 6 6 6 6 7 8 9 9 8 8 8 8 7 8 8 8 7 7 7 7 7 7 7 6 5 4 4 4
3 2 1 2 3 5 6 1 2 3 4 4 4 5 4 6 7 6 5 4 6 8 9 9 8 8 8 7 7 7 7 7 6 6 7 7 7 7 7 6 5 4 4 3
3 4 2 1 3 8 5 1 2 2 5 3 4 6 6 6 5 4 3 4 6 7 8 8 8 8 7 7 7 7 7 6 6 6 7 7 7 7 7 7 6 5 4 4
3 3 3 2 3 7 4 1 0 2 6 2 2 5 5 4 4 5 5 7 7 7 7 7 7 7 7 7 6 6 7 7 7 7 7 6 6 6 6 6 6 5 4 4
1 1 2 3 5 8 5 2 2 2 6 3 2 4 3 3 5 7 8 7 7 7 8 7 7 6 7 7 6 6 7 7 7 7 7 7 6 6 6 5 5 4 4 4
5 4 4 4 4 9 2 3 4 6 2 2 3 3 4 6 7 7 7 8 8 8 8 7 7 7 7 6 6 7 7 7 7 6 6 6 6 5 5 5 5 4 4 3
5 7 5 8 7 3 3 4 3 2 2 3 3 4 4 6 7 7 7 7 7 8 8 7 7 8 7 6 5 7 8 7 7 6 6 6 6 5 5 4 4 3 3 3
4 2 3 4 7 4 4 3 3 2 3 3 3 4 4 5 6 7 7 7 7 7 7 7 7 8 8 7 7 6 7 6 6 6 6 5 5 5 5 4 4 3 3 3
4 4 3 5 6 4 3 4 3 2 3 3 4 3 4 4 6 6 6 7 7 8 7 6 7 8 9 8 7 8 7 6 6 5 5 5 4 4 4 4 3 4 3 3
4 6 6 6 5 4 5 3 2 2 4 4 3 4 4 4 5 6 6 6 6 6 6 7 7 8 8 8 8 7 6 6 5 5 5 4 4 4 4 4 4 6 6 7
Wind_Direction
28 57 35 295 240 211 167 220 275 278 318 50 114 296 325 3 25 19 11 10 7 358 351 358 1 3 6 6 7 3 4 360 3 3 355 347 341 340 346 346 342 342 334 316
43 23 307 316 29 83 202 270 287 302 347 102 209 305 334 27 34 25 13 5 359 355 356 359 1 3 3 0 0 0 355 352 348 337 335 325 318 319 327 341 340 341 337 319
94 313 328 50 34 11 266 222 255 272 325 6 341 292 323 14 34 28 18 8 8 2 351 350 354 354 355 357 355 352 346 344 345 344 0 4 3 357 1 344 331 325 319 311
51 337 7 40 25 11 284 275 266 268 315 286 156 283 281 323 357 7 0 359 0 358 353 349 351 349 347 344 346 348 347 347 345 349 353 3 342 325 315 314 310 316 315 313
354 349 18 21 334 318 269 303 269 251 199 285 273 230 286 345 338 344 347 350 352 352 351 348 348 343 339 341 347 345 349 351 349 344 335 320 312 313 320 328 319 320 314 309
352 356 42 317 319 323 309 343 16 61 91 270 238 196 281 307 305 327 336 341 341 344 346 346 349 350 348 350 353 350 351 348 346 340 335 323 311 316 325 323 311 312 308 301
350 359 3 7 6 9 35 49 10 350 347 257 195 199 254 267 340 327 326 329 332 337 344 348 350 350 349 350 351 349 347 342 341 337 330 318 307 292 284 290 290 299 302 295
2 324 346 4 14 323 353 105 151 240 261 291 311 238 246 236 17 357 336 328 336 341 344 342 343 345 344 344 344 345 343 339 338 335 325 319 311 301 294 294 289 280 282 280
19 290 328 348 340 58 49 94 171 158 272 279 271 286 289 20 7 358 349 345 339 336 337 336 340 343 341 340 339 338 337 335 334 331 324 319 318 310 302 298 293 280 283 292
154 286 309 321 9 32 69 127 86 123 266 279 286 270 270 311 325 334 339 336 329 331 333 334 340 340 339 337 337 337 336 332 330 332 328 321 315 308 302 299 296 293 291 292
88 232 312 354 28 337 27 47 79 173 193 222 283 276 227 227 299 305 315 323 322 322 322 327 333 333 334 339 341 343 339 336 335 333 328 323 317 314 309 303 300 299 294 285
77 116 285 278 273 256 147 149 145 183 261 224 257 271 48 49 316 313 317 321 320 317 316 325 328 332 338 340 341 340 337 334 331 328 326 327 324 320 315 310 307 300 293 285
124 99 348 337 341 9 32 31 116 152 169 213 235 267 332 1 345 335 324 319 321 323 329 334 331 332 332 333 334 334 331 329 329 327 328 330 332 327 320 314 310 303 298 298
104 144 189 229 255 254 277 275 226 169 215 246 241 269 302 324 324 321 318 316 318 321 329 333 332 326 326 326 327 327 327 327 329 330 329 330 329 325 321 320 317 314 311 305
90 218 242 257 266 253 257 268 244 218 220 232 259 264 282 300 297 301 311 318 326 329 330 328 329 325 323 324 325 326 327 327 327 328 329 327 326 324 324 327 323 321 319 313
73 219 287 284 278 267 271 273 257 248 243 248 269 276 281 294 304 310 315 319 323 321 322 323 325 324 320 321 322 324 324 324 323 323 326 328 329 330 329 327 326 328 327 326
146 145 267 281 315 330 275 250 222 231 226 215 243 264 312 314 311 306 305 311 314 315 316 318 318 314 311 310 313 315 316 318 321 323 326 330 331 330 328 327 331 331 330 331
159 150 180 286 358 258 250 239 203 232 251 240 260 284 295 288 294 284 283 299 310 316 317 315 313 311 307 305 312 313 317 319 321 324 327 330 333 328 328 332 330 327 333 334
164 153 160 191 262 276 288 250 173 222 273 241 256 284 299 312 311 294 301 316 306 305 304 303 303 305 307 306 310 316 318 321 323 325 326 328 328 325 328 331 330 328 335 341
72 109 141 164 231 255 260 276 160 98 281 280 264 284 304 336 321 297 323 322 313 312 310 310 312 314 314 311 315 316 316 318 319 319 320 322 323 322 323 324 326 332 338 340
102 94 167 199 237 264 260 262 118 186 266 302 274 280 288 262 255 286 311 316 315 315 315 316 316 315 313 316 317 314 313 312 314 317 320 322 324 323 322 327 333 342 345 352
183 180 196 178 218 257 229 140 188 229 268 278 277 279 279 277 288 302 311 317 323 324 324 324 322 319 320 323 321 314 311 315 321 320 320 322 326 327 331 335 337 345 352 357
204 197 192 197 220 244 200 206 229 228 253 270 278 290 290 294 301 309 314 317 320 323 323 325 323 321 324 327 325 316 317 323 323 322 323 326 330 332 334 334 337 348 357 355
248 197 196 253 266 262 251 252 268 258 262 285 290 294 296 293 299 307 312 318 321 322 324 326 327 327 326 328 326 318 319 323 322 321 324 329 332 334 339 336 336 341 346 343
228 179 212 256 277 301 275 244 252 276 291 302 304 300 294 294 300 303 308 312 315 319 324 327 328 324 322 325 326 325 326 327 325 322 326 331 332 330 332 335 338 335 333 335
198 186 194 234 235 227 264 268 251 267 285 289 300 309 309 298 297 305 305 306 310 315 321 324 325 323 323 327 326 327 330 330 325 324 331 332 330 328 331 332 338 347 347 352